Weather History for Billings, MT

Change the Weather History Date:

Thursday, March 28, 2013

  Actual Average Record
Temperature  
Mean Temperature 48 °F 41 °F  
Max Temperature 63 °F 52 °F 79 °F (1986)
Min Temperature 32 °F 30 °F 1 °F (1965)
Degree Days  
Heating Degree Days 17 24  
Month to date heating degree days 798 774  
Since 1 July heating degree days 5359 5739  
Cooling Degree Days 0 0  
Month to date cooling degree days 0 0  
Year to date cooling degree days 0 0  
Moisture  
Dew Point 23 °F    
Average Humidity 40    
Maximum Humidity 56    
Minimum Humidity 23    
Precipitation  
Precipitation 0.00 in 0.04 in 0.58 in (2000)
Month to date precipitation 0.25 0.92  
Year to date precipitation 1.13 1.88  
Snow  
Snow 0.00 in 0.30 in 4.00 in (1998)
Month to date snowfall 2.7 9.1  
Since 1 July snowfall 34.8 43.6  
Snow Depth 0.00 in    
Sea Level Pressure  
Sea Level Pressure 30.03 in    
Wind  
Wind Speed 7 mph (WSW)    
Max Wind Speed 13 mph    
Max Gust Speed 15 mph    
Visibility 10 miles    
Events      
T = Trace of Precipitation, MM = Missing Value Source: NWS Daily Summary

Daily Weather History Graph

Daily Weather History Graph

Search for Another Location

Airport:

Trip Planner

Search our weather history database for the weather conditions in past years. The results will help you decide how hot, cold, wet, or windy it might be!

Date:

Astronomy

Mar. 28, 2013 Rise Set
Actual Time 7:01 AM MDT 7:37 PM MDT
Civil Twilight 6:31 AM MDT 8:07 PM MDT
Nautical Twilight 5:55 AM MDT 8:43 PM MDT
Astronomical Twilight 5:19 AM MDT 9:20 PM MDT
Moon 9:41 PM MDT (3/28) 7:25 AM MDT (3/28)
Length of Visible Light 13h 36m
Length of Day
12h 36m
Full, 98% of the Moon is Illuminated
Mar 28
Full
Apr 2
Last Quarter
Apr 10
New
Apr 18
First Quarter
Apr 25
Full

Hourly Weather History & Observations

Time (MDT) Temp. Windchill Dew Point Humidity Pressure Visibility Wind Dir Wind Speed Gust Speed Precip Events Conditions
12:53 AM 37.9 °F 30.9 °F 19.9 °F 48% 30.01 in 10.0 mi WNW 10.4 mph - N/A   Partly Cloudy
1:53 AM 37.0 °F 30.4 °F 19.9 °F 50% 30.01 in 10.0 mi West 9.2 mph - N/A   Partly Cloudy
2:53 AM 36.0 °F 28.5 °F 19.9 °F 52% 30.01 in 10.0 mi WNW 10.4 mph - N/A   Clear
3:53 AM 37.9 °F 32.1 °F 19.9 °F 48% 30.02 in 10.0 mi WSW 8.1 mph - N/A   Clear
4:53 AM 34.0 °F 25.5 °F 19.9 °F 56% 30.04 in 10.0 mi WNW 11.5 mph - N/A   Clear
5:53 AM 36.0 °F 29.6 °F 21.0 °F 55% 30.04 in 10.0 mi WSW 8.1 mph - N/A   Clear
6:53 AM 36.0 °F 29.0 °F 19.9 °F 52% 30.06 in 10.0 mi WSW 9.2 mph - N/A   Clear
7:53 AM 36.0 °F 28.5 °F 19.9 °F 52% 30.08 in 10.0 mi WSW 10.4 mph - N/A   Partly Cloudy
8:53 AM 39.0 °F 31.4 °F 21.0 °F 49% 30.09 in 10.0 mi SW 12.7 mph - N/A   Partly Cloudy
9:53 AM 43.0 °F 37.2 °F 23.0 °F 45% 30.09 in 10.0 mi SSW 10.4 mph - N/A   Scattered Clouds
10:53 AM 48.9 °F - 25.0 °F 39% 30.08 in 10.0 mi SW 8.1 mph - N/A   Partly Cloudy
11:53 AM 55.9 °F - 27.0 °F 33% 30.06 in 10.0 mi SW 8.1 mph - N/A   Partly Cloudy
12:53 PM 57.9 °F - 25.0 °F 28% 30.05 in 10.0 mi Calm Calm - N/A   Partly Cloudy
1:53 PM 60.1 °F - 24.1 °F 25% 30.03 in 10.0 mi East 6.9 mph - N/A   Partly Cloudy
2:53 PM 61.0 °F - 24.1 °F 24% 30.01 in 10.0 mi South 5.8 mph - N/A   Scattered Clouds
3:53 PM 60.1 °F - 24.1 °F 25% 30.00 in 10.0 mi Calm Calm - N/A   Scattered Clouds
4:53 PM 63.0 °F - 24.1 °F 23% 29.98 in 10.0 mi NNE 8.1 mph - N/A   Scattered Clouds
5:53 PM 61.0 °F - 24.1 °F 24% 29.98 in 10.0 mi Calm Calm - N/A   Scattered Clouds
6:53 PM 60.1 °F - 24.1 °F 25% 29.99 in 10.0 mi Calm Calm - N/A   Scattered Clouds
7:53 PM 55.0 °F - 24.1 °F 30% 30.01 in 10.0 mi East 3.5 mph - N/A   Scattered Clouds
8:53 PM 53.1 °F - 24.1 °F 32% 30.01 in 10.0 mi East 6.9 mph - N/A   Partly Cloudy
9:53 PM 51.1 °F - 24.1 °F 35% 30.01 in 10.0 mi ESE 11.5 mph - N/A   Clear
10:53 PM 46.0 °F 43.9 °F 24.1 °F 42% 30.01 in 10.0 mi NNW 4.6 mph - N/A   Partly Cloudy
11:53 PM 48.9 °F - 24.1 °F 38% 29.99 in 10.0 mi SSW 4.6 mph - N/A   Scattered Clouds